QPF
0.00 0.00 0.00 0.00 0.00 0.00 0.00 0.00 0.00 0.00 0.00 0.00 0.00 0.00 0.00 0.00 0.00 0.00 0.00 0.00 0.00 0.00 0.00 0.00 0.00 0.00 0.00 0.00 0.00 0.00 0.00 0.00 0.00 0.00 0.00 0.00 0.00 0.00 0.00 0.00 0.00 0.00 0.00 0.00 0.00 0.00 0.00 0.00 0.00 0.00 0.00 0.00 0.00 0.00 0.00 0.00 0.00 0.00 0.00 0.01 0.02 0.02 0.02 0.02 0.01 0.01 0.01 0.01 0.01
0.00 0.00 0.00 0.00 0.00 0.00 0.00 0.00 0.00 0.00 0.00 0.00 0.00 0.00 0.00 0.00 0.00 0.00 0.00 0.00 0.00 0.00 0.00 0.00 0.00 0.00 0.00 0.00 0.00 0.00 0.00 0.00 0.00 0.00 0.00 0.00 0.00 0.00 0.00 0.00 0.00 0.00 0.00 0.00 0.00 0.00 0.00 0.00 0.00 0.00 0.00 0.00 0.01 0.01 0.01 0.01 0.00 0.01 0.01 0.02 0.03 0.04 0.04 0.04 0.03 0.02 0.02 0.02 0.02
0.00 0.00 0.00 0.00 0.00 0.00 0.00 0.00 0.00 0.00 0.00 0.00 0.00 0.00 0.00 0.00 0.00 0.00 0.00 0.00 0.00 0.00 0.00 0.00 0.00 0.00 0.00 0.00 0.00 0.00 0.00 0.00 0.00 0.00 0.00 0.00 0.00 0.00 0.00 0.00 0.00 0.00 0.00 0.00 0.00 0.00 0.00 0.00 0.00 0.00 0.01 0.01 0.01 0.02 0.02 0.02 0.02 0.03 0.03 0.04 0.05 0.05 0.04 0.04 0.04 0.03 0.03 0.03 0.03
0.00 0.00 0.00 0.00 0.00 0.00 0.00 0.00 0.00 0.00 0.00 0.00 0.00 0.00 0.00 0.00 0.00 0.00 0.00 0.00 0.00 0.00 0.00 0.00 0.00 0.00 0.00 0.00 0.00 0.00 0.00 0.00 0.00 0.00 0.00 0.00 0.00 0.00 0.00 0.00 0.00 0.00 0.00 0.00 0.00 0.00 0.01 0.01 0.01 0.01 0.01 0.01 0.02 0.02 0.02 0.02 0.04 0.05 0.06 0.07 0.07 0.06 0.06 0.06 0.06 0.05 0.05 0.04 0.06
0.00 0.00 0.00 0.00 0.00 0.00 0.00 0.00 0.00 0.00 0.00 0.00 0.00 0.00 0.00 0.00 0.00 0.00 0.00 0.00 0.00 0.00 0.00 0.00 0.00 0.00 0.00 0.00 0.00 0.00 0.00 0.00 0.00 0.00 0.00 0.00 0.00 0.00 0.00 0.00 0.00 0.00 0.00 0.00 0.00 0.01 0.01 0.02 0.02 0.01 0.01 0.00 0.01 0.01 0.01 0.02 0.04 0.06 0.07 0.10 0.10 0.10 0.10 0.09 0.08 0.07 0.06 0.05 0.08
0.00 0.00 0.00 0.00 0.00 0.00 0.00 0.00 0.00 0.00 0.00 0.00 0.00 0.00 0.00 0.00 0.00 0.00 0.00 0.00 0.00 0.00 0.00 0.00 0.00 0.00 0.00 0.00 0.00 0.00 0.00 0.00 0.00 0.00 0.00 0.00 0.01 0.01 0.01 0.00 0.01 0.00 0.00 0.00 0.00 0.01 0.01 0.01 0.02 0.02 0.02 0.02 0.02 0.02 0.03 0.03 0.05 0.07 0.10 0.13 0.14 0.14 0.13 0.12 0.09 0.08 0.08 0.08 0.09
0.00 0.00 0.00 0.00 0.00 0.00 0.00 0.00 0.00 0.00 0.00 0.00 0.00 0.00 0.00 0.00 0.00 0.00 0.00 0.00 0.00 0.00 0.00 0.00 0.00 0.00 0.00 0.00 0.00 0.00 0.00 0.00 0.00 0.00 0.00 0.01 0.01 0.02 0.02 0.01 0.01 0.01 0.00 0.00 0.00 0.00 0.01 0.01 0.01 0.02 0.03 0.05 0.07 0.08 0.08 0.07 0.08 0.10 0.12 0.14 0.15 0.14 0.13 0.12 0.10 0.10 0.09 0.10 0.08
0.00 0.00 0.00 0.00 0.00 0.00 0.00 0.00 0.00 0.00 0.00 0.00 0.00 0.00 0.00 0.00 0.00 0.00 0.00 0.00 0.00 0.00 0.00 0.00 0.00 0.00 0.00 0.00 0.00 0.00 0.00 0.00 0.00 0.00 0.00 0.01 0.01 0.02 0.03 0.03 0.02 0.01 0.01 0.01 0.01 0.01 0.01 0.01 0.03 0.04 0.05 0.06 0.10 0.12 0.12 0.11 0.11 0.11 0.12 0.14 0.12 0.11 0.10 0.10 0.09 0.09 0.09 0.08 0.05
0.00 0.00 0.00 0.00 0.00 0.00 0.00 0.00 0.00 0.00 0.00 0.00 0.00 0.00 0.00 0.00 0.00 0.00 0.00 0.00 0.00 0.00 0.00 0.00 0.00 0.00 0.00 0.00 0.00 0.00 0.00 0.00 0.00 0.00 0.01 0.01 0.02 0.03 0.04 0.04 0.03 0.02 0.01 0.01 0.02 0.02 0.02 0.04 0.05 0.07 0.08 0.09 0.12 0.13 0.13 0.12 0.11 0.10 0.10 0.10 0.09 0.08 0.08 0.08 0.08 0.08 0.06 0.04 0.03
0.00 0.00 0.00 0.00 0.00 0.00 0.00 0.00 0.00 0.00 0.00 0.00 0.00 0.00 0.00 0.00 0.00 0.00 0.00 0.00 0.00 0.00 0.00 0.00 0.00 0.00 0.00 0.00 0.00 0.00 0.00 0.00 0.00 0.01 0.01 0.01 0.02 0.03 0.04 0.05 0.04 0.03 0.02 0.02 0.03 0.04 0.05 0.07 0.09 0.10 0.11 0.12 0.11 0.12 0.12 0.11 0.09 0.08 0.08 0.07 0.07 0.07 0.07 0.06 0.06 0.05 0.04 0.03 0.02
0.00 0.00 0.00 0.00 0.00 0.00 0.00 0.00 0.00 0.00 0.00 0.00 0.00 0.00 0.00 0.00 0.00 0.00 0.00 0.00 0.00 0.00 0.00 0.00 0.00 0.00 0.00 0.00 0.00 0.00 0.00 0.01 0.01 0.01 0.01 0.01 0.02 0.03 0.04 0.04 0.05 0.04 0.03 0.04 0.05 0.05 0.06 0.08 0.10 0.12 0.13 0.13 0.13 0.13 0.12 0.10 0.08 0.07 0.07 0.07 0.07 0.06 0.06 0.05 0.05 0.04 0.03 0.02 0.01
0.00 0.00 0.00 0.00 0.00 0.00 0.00 0.00 0.00 0.00 0.00 0.00 0.00 0.00 0.00 0.00 0.00 0.00 0.00 0.00 0.00 0.00 0.00 0.00 0.00 0.00 0.00 0.00 0.00 0.00 0.00 0.01 0.01 0.01 0.01 0.01 0.02 0.03 0.04 0.05 0.06 0.06 0.06 0.07 0.06 0.06 0.07 0.08 0.10 0.12 0.13 0.13 0.13 0.12 0.11 0.08 0.07 0.06 0.06 0.05 0.05 0.05 0.04 0.04 0.04 0.03 0.02 0.00 0.00
0.00 0.00 0.00 0.00 0.00 0.00 0.00 0.00 0.00 0.00 0.00 0.00 0.00 0.00 0.00 0.00 0.00 0.00 0.00 0.00 0.00 0.00 0.00 0.00 0.00 0.00 0.00 0.00 0.00 0.00 0.00 0.01 0.01 0.01 0.02 0.02 0.03 0.04 0.05 0.06 0.07 0.09 0.10 0.10 0.09 0.09 0.08 0.07 0.08 0.10 0.11 0.11 0.10 0.09 0.08 0.06 0.05 0.04 0.04 0.03 0.03 0.03 0.03 0.02 0.02 0.01 0.00 0.00 0.00
0.00 0.00 0.00 0.00 0.00 0.00 0.00 0.00 0.00 0.00 0.00 0.00 0.00 0.00 0.00 0.00 0.00 0.00 0.00 0.00 0.00 0.00 0.00 0.00 0.00 0.00 0.00 0.00 0.00 0.00 0.00 0.01 0.01 0.02 0.02 0.03 0.03 0.04 0.06 0.07 0.08 0.10 0.11 0.11 0.11 0.10 0.08 0.07 0.06 0.06 0.07 0.08 0.07 0.07 0.06 0.04 0.03 0.03 0.02 0.02 0.02 0.01 0.01 0.01 0.01 0.00 0.00 0.00 0.00
0.00 0.00 0.00 0.00 0.00 0.00 0.00 0.00 0.00 0.00 0.00 0.00 0.00 0.00 0.00 0.00 0.00 0.00 0.00 0.00 0.00 0.00 0.00 0.00 0.00 0.00 0.00 0.00 0.00 0.00 0.00 0.01 0.01 0.02 0.03 0.03 0.04 0.05 0.06 0.08 0.08 0.08 0.09 0.09 0.09 0.08 0.07 0.06 0.05 0.05 0.05 0.05 0.05 0.04 0.03 0.02 0.02 0.01 0.01 0.01 0.01 0.00 0.00 0.00 0.00 0.00 0.00 0.00 0.00
0.00 0.00 0.00 0.00 0.00 0.00 0.00 0.00 0.00 0.00 0.00 0.00 0.00 0.00 0.00 0.00 0.00 0.00 0.00 0.00 0.00 0.00 0.00 0.00 0.00 0.00 0.00 0.00 0.00 0.00 0.00 0.01 0.02 0.03 0.03 0.04 0.05 0.06 0.07 0.08 0.07 0.07 0.06 0.06 0.06 0.06 0.06 0.06 0.05 0.05 0.04 0.04 0.03 0.02 0.01 0.01 0.01 0.01 0.00 0.00 0.00 0.00 0.00 0.00 0.00 0.00 0.00 0.00 0.00
0.00 0.00 0.00 0.00 0.00 0.00 0.00 0.00 0.00 0.00 0.00 0.00 0.00 0.00 0.00 0.00 0.00 0.00 0.00 0.00 0.00 0.00 0.00 0.00 0.00 0.00 0.00 0.00 0.00 0.00 0.01 0.01 0.02 0.03 0.04 0.04 0.05 0.06 0.07 0.07 0.07 0.06 0.06 0.05 0.05 0.06 0.06 0.06 0.06 0.05 0.05 0.03 0.02 0.01 0.01 0.01 0.00 0.00 0.00 0.00 0.00 0.00 0.00 0.00 0.00 0.00 0.00 0.00 0.00
0.00 0.00 0.00 0.00 0.00 0.00 0.00 0.00 0.00 0.00 0.00 0.00 0.00 0.00 0.00 0.00 0.00 0.00 0.00 0.00 0.00 0.00 0.00 0.00 0.00 0.00 0.00 0.01 0.01 0.01 0.01 0.01 0.03 0.04 0.05 0.04 0.05 0.06 0.06 0.07 0.07 0.07 0.06 0.06 0.05 0.05 0.05 0.06 0.05 0.05 0.04 0.03 0.01 0.01 0.00 0.00 0.00 0.00 0.00 0.00 0.00 0.00 0.00 0.00 0.00 0.00 0.00 0.00 0.00
0.00 0.00 0.00 0.00 0.00 0.00 0.00 0.00 0.00 0.00 0.00 0.00 0.00 0.00 0.00 0.00 0.00 0.00 0.00 0.00 0.00 0.00 0.00 0.00 0.00 0.00 0.01 0.01 0.01 0.01 0.01 0.02 0.03 0.05 0.05 0.05 0.05 0.05 0.06 0.07 0.07 0.07 0.06 0.06 0.06 0.05 0.04 0.04 0.03 0.03 0.02 0.01 0.01 0.01 0.00 0.00 0.00 0.00 0.00 0.00 0.00 0.00 0.00 0.00 0.00 0.00 0.00 0.00 0.00
0.00 0.00 0.00 0.00 0.00 0.00 0.00 0.00 0.00 0.00 0.00 0.00 0.00 0.00 0.00 0.00 0.00 0.00 0.00 0.00 0.00 0.00 0.00 0.00 0.01 0.01 0.01 0.01 0.02 0.02 0.03 0.03 0.03 0.04 0.05 0.05 0.05 0.05 0.06 0.06 0.07 0.07 0.07 0.06 0.05 0.04 0.02 0.02 0.02 0.01 0.01 0.01 0.01 0.01 0.01 0.00 0.00 0.00 0.00 0.00 0.00 0.00 0.00 0.00 0.00 0.00 0.00 0.00 0.00
0.00 0.00 0.00 0.00 0.00 0.00 0.00 0.00 0.00 0.00 0.00 0.00 0.00 0.00 0.00 0.00 0.00 0.00 0.00 0.01 0.01 0.01 0.01 0.01 0.01 0.01 0.01 0.01 0.02 0.03 0.04 0.03 0.04 0.04 0.04 0.04 0.04 0.05 0.06 0.06 0.07 0.07 0.06 0.04 0.03 0.02 0.01 0.01 0.01 0.00 0.01 0.01 0.01 0.01 0.01 0.00 0.00 0.00 0.00 0.00 0.00 0.00 0.00 0.00 0.00 0.00 0.00 0.00 0.00
0.00 0.00 0.00 0.00 0.00 0.00 0.00 0.00 0.00 0.00 0.00 0.00 0.00 0.00 0.00 0.00 0.00 0.00 0.01 0.01 0.01 0.01 0.01 0.01 0.01 0.01 0.01 0.01 0.02 0.03 0.04 0.04 0.04 0.04 0.04 0.04 0.04 0.05 0.06 0.06 0.06 0.05 0.04 0.02 0.01 0.01 0.00 0.00 0.00 0.01 0.01 0.01 0.01 0.01 0.00 0.00 0.00 0.00 0.00 0.00 0.00 0.00 0.00 0.00 0.00 0.00 0.00 0.00 0.00
0.00 0.00 0.00 0.00 0.00 0.01 0.01 0.00 0.00 0.00 0.00 0.00 0.00 0.00 0.00 0.00 0.01 0.01 0.02 0.03 0.02 0.02 0.02 0.01 0.01 0.01 0.01 0.01 0.02 0.03 0.04 0.05 0.05 0.04 0.04 0.03 0.04 0.05 0.06 0.06 0.05 0.03 0.02 0.01 0.01 0.00 0.00 0.00 0.01 0.01 0.01 0.01 0.00 0.00 0.00 0.00 0.00 0.00 0.00 0.00 0.00 0.00 0.00 0.00 0.00 0.00 0.00 0.00 0.00
0.00 0.00 0.00 0.00 0.01 0.01 0.01 0.01 0.00 0.00 0.00 0.00 0.00 0.01 0.01 0.01 0.01 0.02 0.03 0.04 0.03 0.03 0.02 0.02 0.02 0.02 0.02 0.01 0.02 0.03 0.04 0.05 0.04 0.03 0.03 0.04 0.05 0.05 0.06 0.05 0.05 0.04 0.02 0.01 0.00 0.00 0.00 0.01 0.01 0.01 0.00 0.00 0.00 0.00 0.00 0.00 0.00 0.00 0.00 0.00 0.00 0.00 0.00 0.00 0.00 0.00 0.00 0.00 0.00
0.00 0.00 0.00 0.01 0.01 0.01 0.01 0.01 0.01 0.00 0.01 0.01 0.01 0.01 0.01 0.02 0.02 0.03 0.04 0.05 0.04 0.03 0.02 0.02 0.02 0.02 0.02 0.02 0.02 0.04 0.06 0.05 0.03 0.03 0.04 0.05 0.06 0.06 0.06 0.06 0.06 0.05 0.03 0.01 0.01 0.00 0.01 0.01 0.01 0.01 0.00 0.00 0.00 0.00 0.00 0.00 0.00 0.00 0.00 0.00 0.00 0.00 0.00 0.00 0.00 0.00 0.00 0.00 0.00
0.00 0.01 0.01 0.01 0.01 0.02 0.02 0.01 0.01 0.01 0.01 0.01 0.01 0.01 0.02 0.02 0.03 0.03 0.04 0.05 0.04 0.03 0.02 0.02 0.02 0.03 0.03 0.03 0.05 0.06 0.07 0.07 0.04 0.04 0.05 0.06 0.07 0.07 0.07 0.06 0.06 0.04 0.02 0.01 0.00 0.01 0.01 0.01 0.00 0.00 0.00 0.00 0.00 0.00 0.00 0.00 0.00 0.00 0.00 0.00 0.00 0.00 0.00 0.00 0.00 0.00 0.00 0.00 0.00
0.01 0.01 0.02 0.02 0.02 0.02 0.02 0.01 0.01 0.01 0.01 0.01 0.01 0.02 0.02 0.03 0.03 0.04 0.04 0.04 0.04 0.03 0.03 0.02 0.03 0.04 0.05 0.07 0.07 0.07 0.08 0.09 0.06 0.06 0.06 0.07 0.07 0.07 0.07 0.06 0.06 0.04 0.01 0.00 0.00 0.00 0.00 0.00 0.00 0.00 0.00 0.00 0.00 0.00 0.00 0.00 0.00 0.00 0.00 0.00 0.00 0.00 0.00 0.00 0.00 0.00 0.00 0.00 0.00
0.01 0.01 0.01 0.01 0.01 0.01 0.02 0.01 0.01 0.01 0.01 0.02 0.02 0.02 0.03 0.03 0.03 0.04 0.05 0.05 0.04 0.03 0.03 0.03 0.04 0.06 0.08 0.09 0.09 0.08 0.08 0.10 0.07 0.06 0.07 0.08 0.08 0.07 0.07 0.06 0.04 0.03 0.01 0.00 0.00 0.00 0.00 0.00 0.00 0.00 0.00 0.00 0.00 0.00 0.00 0.00 0.00 0.00 0.00 0.00 0.00 0.00 0.00 0.00 0.00 0.00 0.00 0.00 0.00
0.01 0.01 0.01 0.01 0.01 0.01 0.02 0.02 0.02 0.02 0.02 0.02 0.02 0.03 0.03 0.03 0.04 0.05 0.06 0.06 0.04 0.04 0.04 0.05 0.06 0.07 0.09 0.10 0.10 0.09 0.09 0.10 0.07 0.05 0.06 0.07 0.07 0.07 0.06 0.04 0.03 0.01 0.01 0.00 0.00 0.00 0.00 0.00 0.00 0.00 0.00 0.00 0.00 0.00 0.00 0.00 0.00 0.00 0.00 0.00 0.00 0.00 0.00 0.00 0.00 0.00 0.00 0.00 0.00
0.01 0.01 0.01 0.01 0.01 0.01 0.02 0.02 0.02 0.02 0.02 0.02 0.02 0.03 0.03 0.04 0.04 0.05 0.06 0.07 0.05 0.04 0.05 0.05 0.06 0.07 0.09 0.10 0.10 0.09 0.08 0.08 0.06 0.05 0.05 0.07 0.07 0.06 0.05 0.03 0.02 0.01 0.00 0.00 0.00 0.00 0.00 0.00 0.00 0.00 0.00 0.00 0.00 0.00 0.00 0.00 0.00 0.00 0.00 0.00 0.00 0.00 0.00 0.00 0.00 0.00 0.00 0.00 0.00
0.01 0.01 0.01 0.01 0.01 0.01 0.02 0.02 0.02 0.02 0.02 0.02 0.03 0.03 0.03 0.04 0.05 0.07 0.07 0.08 0.06 0.05 0.05 0.05 0.06 0.07 0.08 0.10 0.10 0.09 0.09 0.07 0.04 0.04 0.05 0.06 0.06 0.05 0.03 0.02 0.01 0.01 0.00 0.00 0.00 0.00 0.00 0.00 0.00 0.00 0.00 0.00 0.00 0.00 0.00 0.00 0.00 0.00 0.00 0.00 0.00 0.00 0.00 0.00 0.00 0.00 0.00 0.00 0.00
0.01 0.01 0.01 0.01 0.01 0.02 0.02 0.02 0.02 0.02 0.02 0.02 0.03 0.03 0.04 0.06 0.07 0.08 0.09 0.08 0.06 0.05 0.05 0.06 0.06 0.07 0.08 0.10 0.10 0.10 0.09 0.05 0.04 0.03 0.04 0.05 0.04 0.03 0.02 0.01 0.01 0.01 0.00 0.00 0.00 0.00 0.00 0.00 0.00 0.00 0.00 0.00 0.00 0.00 0.00 0.00 0.00 0.00 0.00 0.00 0.00 0.00 0.00 0.00 0.00 0.00 0.00 0.00 0.00
0.01 0.01 0.01 0.01 0.01 0.02 0.02 0.02 0.02 0.02 0.03 0.03 0.04 0.05 0.05 0.06 0.07 0.08 0.09 0.08 0.06 0.05 0.05 0.06 0.06 0.07 0.08 0.09 0.10 0.11 0.09 0.03 0.02 0.01 0.02 0.03 0.02 0.02 0.01 0.01 0.01 0.00 0.00 0.00 0.00 0.00 0.00 0.00 0.00 0.00 0.00 0.00 0.00 0.00 0.00 0.00 0.00 0.00 0.00 0.00 0.00 0.00 0.00 0.00 0.00 0.00 0.00 0.00 0.00
0.01 0.01 0.01 0.01 0.02 0.02 0.02 0.02 0.02 0.03 0.03 0.04 0.05 0.05 0.06 0.06 0.07 0.08 0.08 0.07 0.05 0.05 0.06 0.06 0.06 0.07 0.07 0.08 0.10 0.11 0.09 0.03 0.02 0.01 0.01 0.01 0.01 0.01 0.01 0.01 0.00 0.00 0.00 0.00 0.00 0.00 0.00 0.00 0.00 0.00 0.00 0.00 0.00 0.00 0.00 0.00 0.00 0.00 0.00 0.00 0.00 0.00 0.00 0.00 0.00 0.00 0.00 0.00 0.00
0.01 0.01 0.01 0.01 0.02 0.02 0.02 0.02 0.02 0.03 0.03 0.04 0.05 0.06 0.06 0.07 0.07 0.07 0.07 0.05 0.03 0.04 0.06 0.07 0.07 0.07 0.07 0.09 0.11 0.12 0.10 0.03 0.02 0.01 0.01 0.00 0.00 0.00 0.00 0.00 0.00 0.00 0.00 0.00 0.00 0.00 0.00 0.00 0.00 0.00 0.00 0.00 0.00 0.00 0.00 0.00 0.00 0.00 0.00 0.00 0.00 0.00 0.00 0.00 0.00 0.00 0.00 0.00 0.00
0.01 0.01 0.01 0.01 0.01 0.02 0.02 0.02 0.02 0.03 0.03 0.04 0.05 0.06 0.06 0.07 0.07 0.07 0.05 0.03 0.02 0.04 0.06 0.07 0.07 0.08 0.08 0.10 0.12 0.14 0.12 0.04 0.03 0.02 0.01 0.00 0.00 0.00 0.00 0.00 0.00 0.00 0.00 0.00 0.00 0.00 0.00 0.00 0.00 0.00 0.00 0.00 0.00 0.00 0.00 0.00 0.00 0.00 0.00 0.00 0.00 0.00 0.00 0.00 0.00 0.00 0.00 0.00 0.00
0.01 0.00 0.01 0.01 0.01 0.01 0.01 0.02 0.03 0.03 0.04 0.04 0.05 0.05 0.05 0.07 0.08 0.07 0.04 0.02 0.01 0.03 0.04 0.06 0.07 0.08 0.09 0.09 0.11 0.13 0.11 0.05 0.03 0.01 0.01 0.00 0.00 0.00 0.00 0.00 0.00 0.00 0.00 0.00 0.00 0.00 0.00 0.00 0.00 0.00 0.00 0.00 0.00 0.00 0.00 0.00 0.00 0.00 0.00 0.00 0.00 0.00 0.00 0.00 0.00 0.00 0.00 0.00 0.00
0.00 0.00 0.00 0.01 0.01 0.01 0.01 0.02 0.03 0.03 0.04 0.04 0.05 0.05 0.05 0.06 0.06 0.05 0.03 0.01 0.01 0.02 0.04 0.06 0.07 0.08 0.08 0.07 0.08 0.08 0.06 0.04 0.02 0.01 0.00 0.00 0.00 0.00 0.00 0.00 0.00 0.00 0.00 0.00 0.00 0.00 0.00 0.00 0.00 0.00 0.00 0.00 0.00 0.00 0.00 0.00 0.00 0.00 0.00 0.00 0.00 0.00 0.00 0.00 0.00 0.00 0.00 0.00 0.00
0.00 0.00 0.00 0.00 0.01 0.01 0.01 0.02 0.02 0.03 0.04 0.04 0.05 0.05 0.05 0.05 0.04 0.03 0.02 0.02 0.01 0.02 0.03 0.05 0.06 0.07 0.06 0.05 0.05 0.04 0.03 0.02 0.01 0.00 0.00 0.00 0.00 0.00 0.00 0.00 0.00 0.00 0.00 0.00 0.00 0.00 0.00 0.00 0.00 0.00 0.00 0.00 0.00 0.00 0.00 0.00 0.00 0.00 0.00 0.00 0.00 0.00 0.00 0.00 0.00 0.00 0.00 0.00 0.00
0.00 0.00 0.00 0.00 0.01 0.01 0.01 0.02 0.03 0.03 0.03 0.04 0.04 0.04 0.04 0.03 0.03 0.02 0.02 0.02 0.02 0.02 0.02 0.03 0.05 0.05 0.05 0.04 0.03 0.02 0.02 0.01 0.00 0.00 0.00 0.00 0.00 0.00 0.00 0.00 0.00 0.00 0.00 0.00 0.00 0.00 0.00 0.00 0.00 0.00 0.00 0.00 0.00 0.00 0.00 0.00 0.00 0.00 0.00 0.00 0.00 0.00 0.00 0.00 0.00 0.00 0.00 0.00 0.00
0.00 0.00 0.00 0.00 0.00 0.00 0.01 0.02 0.03 0.03 0.03 0.03 0.04 0.04 0.03 0.02 0.02 0.02 0.02 0.02 0.02 0.02 0.02 0.03 0.04 0.04 0.04 0.03 0.02 0.01 0.01 0.00 0.00 0.00 0.00 0.00 0.00 0.00 0.00 0.00 0.00 0.00 0.00 0.00 0.00 0.00 0.00 0.00 0.00 0.00 0.00 0.00 0.00 0.00 0.00 0.00 0.00 0.00 0.00 0.00 0.00 0.00 0.00 0.00 0.00 0.00 0.00 0.00 0.01
MSLP
1008.67 1008.91 1009.11 1009.39 1009.63 1009.83 1010.07 1010.31 1010.51 1010.71 1010.95 1011.15 1011.39 1011.55 1011.79 1011.95 1012.11 1012.31 1012.47 1012.59 1012.75 1012.95 1013.11 1013.27 1013.47 1013.67 1013.83 1013.99 1014.11 1014.27 1014.43 1014.63 1014.83 1014.99 1015.19 1015.39 1015.59 1015.71 1015.83 1015.95 1016.07 1016.23 1016.43 1016.63 1016.79 1016.95 1017.11 1017.27 1017.47 1017.67 1017.91 1018.07 1018.23 1018.47 1018.59 1018.67 1018.79 1018.99 1019.27 1019.51 1019.75 1019.91 1020.07 1020.23 1020.39 1020.55 1020.71 1020.87 1021.03
1008.59 1008.79 1009.03 1009.27 1009.51 1009.79 1010.03 1010.27 1010.51 1010.71 1010.95 1011.15 1011.31 1011.51 1011.67 1011.87 1012.07 1012.23 1012.39 1012.55 1012.67 1012.87 1013.07 1013.27 1013.43 1013.63 1013.79 1013.95 1014.07 1014.19 1014.39 1014.55 1014.79 1014.95 1015.15 1015.39 1015.51 1015.67 1015.79 1015.95 1016.07 1016.23 1016.39 1016.63 1016.79 1016.99 1017.15 1017.31 1017.51 1017.75 1017.95 1018.15 1018.35 1018.51 1018.67 1018.79 1018.87 1019.11 1019.39 1019.55 1019.79 1019.95 1020.11 1020.35 1020.55 1020.75 1020.91 1021.07 1021.23
1008.43 1008.67 1008.95 1009.19 1009.47 1009.71 1009.99 1010.23 1010.51 1010.71 1010.95 1011.15 1011.31 1011.51 1011.67 1011.83 1011.99 1012.19 1012.39 1012.51 1012.67 1012.87 1013.07 1013.23 1013.43 1013.59 1013.79 1013.95 1014.03 1014.19 1014.31 1014.51 1014.71 1014.95 1015.15 1015.31 1015.47 1015.63 1015.79 1015.95 1016.11 1016.23 1016.39 1016.63 1016.79 1017.03 1017.19 1017.35 1017.51 1017.75 1017.99 1018.19 1018.39 1018.63 1018.79 1018.91 1018.99 1019.19 1019.47 1019.67 1019.83 1020.03 1020.27 1020.51 1020.71 1020.91 1021.07 1021.23 1021.39
1008.39 1008.63 1008.83 1009.11 1009.39 1009.63 1009.87 1010.11 1010.43 1010.67 1010.91 1011.11 1011.31 1011.51 1011.67 1011.83 1011.99 1012.15 1012.35 1012.51 1012.67 1012.83 1013.03 1013.23 1013.43 1013.59 1013.71 1013.91 1014.03 1014.15 1014.23 1014.47 1014.67 1014.87 1015.11 1015.27 1015.47 1015.63 1015.79 1015.95 1016.15 1016.31 1016.47 1016.67 1016.83 1017.07 1017.23 1017.39 1017.63 1017.83 1018.07 1018.27 1018.51 1018.71 1018.91 1019.07 1019.19 1019.39 1019.63 1019.79 1020.03 1020.23 1020.43 1020.67 1020.83 1021.03 1021.23 1021.39 1021.55
1008.31 1008.51 1008.75 1009.03 1009.27 1009.51 1009.79 1010.07 1010.39 1010.67 1010.87 1011.11 1011.35 1011.55 1011.71 1011.87 1012.03 1012.19 1012.39 1012.55 1012.67 1012.83 1012.99 1013.19 1013.39 1013.55 1013.71 1013.83 1013.99 1014.15 1014.27 1014.47 1014.63 1014.87 1015.11 1015.31 1015.47 1015.67 1015.79 1015.99 1016.23 1016.39 1016.51 1016.75 1016.95 1017.15 1017.35 1017.51 1017.79 1018.03 1018.23 1018.39 1018.67 1018.87 1019.03 1019.23 1019.39 1019.55 1019.79 1020.03 1020.23 1020.39 1020.63 1020.79 1021.03 1021.23 1021.39 1021.51 1021.71
1008.23 1008.51 1008.71 1008.99 1009.23 1009.51 1009.75 1010.03 1010.31 1010.55 1010.79 1011.07 1011.31 1011.51 1011.71 1011.87 1012.03 1012.19 1012.39 1012.59 1012.71 1012.87 1012.99 1013.19 1013.35 1013.51 1013.67 1013.83 1013.95 1014.11 1014.31 1014.51 1014.67 1014.87 1015.11 1015.35 1015.55 1015.71 1015.91 1016.11 1016.31 1016.47 1016.63 1016.83 1017.03 1017.23 1017.47 1017.67 1017.95 1018.19 1018.39 1018.63 1018.79 1019.03 1019.19 1019.31 1019.47 1019.71 1019.99 1020.27 1020.51 1020.67 1020.83 1021.07 1021.23 1021.39 1021.51 1021.71 1021.91
1008.19 1008.43 1008.71 1008.99 1009.23 1009.47 1009.75 1010.03 1010.27 1010.51 1010.75 1011.03 1011.23 1011.47 1011.67 1011.83 1012.03 1012.19 1012.39 1012.55 1012.75 1012.91 1013.03 1013.19 1013.39 1013.55 1013.71 1013.87 1013.99 1014.19 1014.39 1014.55 1014.75 1014.95 1015.11 1015.39 1015.63 1015.79 1015.99 1016.23 1016.39 1016.55 1016.71 1016.91 1017.11 1017.39 1017.59 1017.79 1018.07 1018.35 1018.55 1018.75 1018.99 1019.23 1019.39 1019.43 1019.63 1019.83 1020.11 1020.47 1020.71 1020.91 1021.07 1021.27 1021.43 1021.59 1021.79 1021.95 1022.07
1008.11 1008.39 1008.67 1008.95 1009.19 1009.43 1009.71 1010.03 1010.23 1010.51 1010.75 1010.99 1011.19 1011.39 1011.63 1011.79 1011.99 1012.19 1012.39 1012.55 1012.75 1012.91 1013.03 1013.19 1013.39 1013.51 1013.67 1013.83 1013.99 1014.15 1014.39 1014.63 1014.79 1014.99 1015.23 1015.47 1015.67 1015.87 1016.07 1016.31 1016.51 1016.67 1016.87 1017.03 1017.27 1017.51 1017.75 1017.95 1018.19 1018.47 1018.67 1018.91 1019.15 1019.39 1019.55 1019.63 1019.79 1020.03 1020.35 1020.67 1020.95 1021.15 1021.31 1021.47 1021.67 1021.79 1021.95 1022.07 1022.27
1008.15 1008.39 1008.63 1008.91 1009.15 1009.39 1009.67 1009.95 1010.23 1010.47 1010.71 1010.99 1011.23 1011.39 1011.59 1011.79 1011.99 1012.19 1012.39 1012.59 1012.71 1012.87 1013.03 1013.23 1013.39 1013.55 1013.67 1013.79 1013.99 1014.19 1014.39 1014.67 1014.87 1015.11 1015.31 1015.51 1015.71 1015.95 1016.23 1016.43 1016.67 1016.87 1017.07 1017.27 1017.47 1017.67 1017.91 1018.11 1018.39 1018.67 1018.87 1019.07 1019.35 1019.59 1019.75 1019.83 1019.99 1020.23 1020.51 1020.79 1021.11 1021.39 1021.51 1021.71 1021.87 1022.03 1022.15 1022.31 1022.51
1008.15 1008.39 1008.67 1008.95 1009.15 1009.39 1009.67 1009.95 1010.23 1010.47 1010.75 1011.03 1011.23 1011.39 1011.63 1011.79 1011.99 1012.19 1012.39 1012.51 1012.75 1012.95 1013.11 1013.27 1013.43 1013.59 1013.71 1013.83 1014.07 1014.23 1014.47 1014.67 1014.91 1015.11 1015.35 1015.59 1015.79 1016.03 1016.31 1016.51 1016.79 1016.99 1017.23 1017.43 1017.63 1017.83 1018.07 1018.31 1018.59 1018.83 1019.11 1019.31 1019.51 1019.79 1019.95 1020.07 1020.23 1020.43 1020.75 1021.07 1021.31 1021.51 1021.75 1021.95 1022.11 1022.27 1022.39 1022.55 1022.79
1008.11 1008.39 1008.63 1008.91 1009.23 1009.47 1009.71 1009.99 1010.23 1010.51 1010.75 1011.03 1011.23 1011.43 1011.67 1011.83 1011.99 1012.19 1012.39 1012.51 1012.79 1012.99 1013.19 1013.35 1013.47 1013.63 1013.75 1013.91 1014.11 1014.31 1014.51 1014.71 1014.95 1015.19 1015.43 1015.67 1015.87 1016.11 1016.39 1016.63 1016.87 1017.11 1017.35 1017.55 1017.75 1017.95 1018.23 1018.51 1018.79 1019.07 1019.35 1019.55 1019.79 1019.95 1020.15 1020.27 1020.43 1020.67 1020.99 1021.31 1021.51 1021.75 1021.95 1022.23 1022.39 1022.51 1022.67 1022.83 1023.03
1008.11 1008.39 1008.63 1008.91 1009.23 1009.47 1009.71 1010.03 1010.31 1010.55 1010.79 1011.11 1011.27 1011.47 1011.67 1011.87 1012.03 1012.23 1012.39 1012.67 1012.87 1013.07 1013.23 1013.35 1013.47 1013.59 1013.75 1013.95 1014.19 1014.39 1014.59 1014.79 1015.03 1015.27 1015.51 1015.79 1015.99 1016.23 1016.51 1016.79 1017.03 1017.27 1017.47 1017.67 1017.83 1018.07 1018.35 1018.63 1018.91 1019.23 1019.51 1019.75 1019.95 1020.19 1020.39 1020.51 1020.67 1020.91 1021.23 1021.51 1021.71 1021.95 1022.23 1022.51 1022.67 1022.79 1022.95 1023.11 1023.23
1008.11 1008.39 1008.67 1008.95 1009.23 1009.51 1009.79 1010.03 1010.35 1010.63 1010.87 1011.11 1011.31 1011.51 1011.71 1011.95 1012.11 1012.23 1012.47 1012.71 1012.91 1013.11 1013.31 1013.39 1013.51 1013.63 1013.79 1014.03 1014.27 1014.51 1014.71 1014.91 1015.11 1015.39 1015.67 1015.91 1016.19 1016.47 1016.71 1016.95 1017.23 1017.47 1017.67 1017.87 1017.99 1018.19 1018.47 1018.75 1019.03 1019.31 1019.63 1019.95 1020.19 1020.43 1020.59 1020.71 1020.91 1021.15 1021.43 1021.75 1022.03 1022.23 1022.51 1022.71 1022.87 1023.03 1023.15 1023.27 1023.47
1008.11 1008.39 1008.67 1008.99 1009.23 1009.51 1009.79 1010.07 1010.39 1010.67 1010.91 1011.11 1011.35 1011.51 1011.79 1011.99 1012.19 1012.35 1012.51 1012.75 1012.95 1013.15 1013.31 1013.47 1013.55 1013.71 1013.95 1014.15 1014.35 1014.55 1014.79 1014.99 1015.23 1015.51 1015.79 1016.07 1016.35 1016.63 1016.91 1017.19 1017.39 1017.63 1017.87 1018.07 1018.23 1018.39 1018.63 1018.95 1019.19 1019.43 1019.71 1020.07 1020.39 1020.67 1020.83 1020.99 1021.23 1021.47 1021.75 1021.99 1022.27 1022.51 1022.71 1022.91 1023.07 1023.23 1023.35 1023.51 1023.71
1008.15 1008.43 1008.71 1009.03 1009.27 1009.55 1009.83 1010.15 1010.39 1010.67 1010.95 1011.15 1011.35 1011.55 1011.79 1012.03 1012.23 1012.39 1012.55 1012.79 1012.99 1013.15 1013.35 1013.51 1013.71 1013.91 1014.07 1014.23 1014.43 1014.67 1014.87 1015.15 1015.39 1015.67 1015.99 1016.27 1016.51 1016.79 1017.11 1017.35 1017.59 1017.79 1018.07 1018.31 1018.51 1018.67 1018.87 1019.15 1019.39 1019.63 1019.91 1020.23 1020.55 1020.83 1021.11 1021.31 1021.55 1021.79 1022.03 1022.23 1022.47 1022.67 1022.91 1023.11 1023.23 1023.39 1023.55 1023.71 1023.91
1008.19 1008.51 1008.79 1009.07 1009.31 1009.59 1009.87 1010.19 1010.39 1010.67 1010.95 1011.15 1011.39 1011.59 1011.83 1012.07 1012.23 1012.39 1012.59 1012.83 1013.03 1013.23 1013.39 1013.63 1013.87 1014.07 1014.23 1014.39 1014.55 1014.79 1015.07 1015.39 1015.63 1015.91 1016.15 1016.47 1016.71 1016.95 1017.23 1017.51 1017.75 1017.99 1018.23 1018.51 1018.71 1018.95 1019.23 1019.43 1019.67 1019.87 1020.11 1020.43 1020.79 1021.07 1021.35 1021.63 1021.87 1022.07 1022.31 1022.47 1022.67 1022.83 1023.07 1023.27 1023.43 1023.59 1023.75 1023.83 1024.03
1008.23 1008.55 1008.79 1009.07 1009.35 1009.63 1009.91 1010.19 1010.43 1010.71 1010.95 1011.19 1011.39 1011.63 1011.83 1012.07 1012.23 1012.43 1012.63 1012.83 1013.07 1013.31 1013.55 1013.75 1013.95 1014.15 1014.39 1014.55 1014.79 1014.99 1015.27 1015.59 1015.83 1016.07 1016.35 1016.59 1016.87 1017.11 1017.39 1017.67 1017.95 1018.15 1018.39 1018.63 1018.87 1019.19 1019.51 1019.75 1019.95 1020.15 1020.39 1020.71 1021.07 1021.35 1021.59 1021.87 1022.11 1022.31 1022.51 1022.67 1022.91 1023.11 1023.27 1023.43 1023.63 1023.79 1023.91 1023.99 1024.19
1008.23 1008.55 1008.83 1009.11 1009.39 1009.67 1009.95 1010.23 1010.51 1010.75 1010.99 1011.23 1011.43 1011.63 1011.83 1012.07 1012.23 1012.47 1012.67 1012.83 1013.11 1013.35 1013.63 1013.83 1014.07 1014.27 1014.51 1014.75 1014.99 1015.23 1015.51 1015.75 1016.03 1016.31 1016.55 1016.79 1016.99 1017.27 1017.59 1017.91 1018.15 1018.39 1018.59 1018.83 1019.11 1019.39 1019.71 1019.95 1020.23 1020.47 1020.79 1021.07 1021.35 1021.63 1021.83 1022.07 1022.35 1022.55 1022.79 1022.95 1023.19 1023.39 1023.51 1023.67 1023.79 1023.91 1024.03 1024.15 1024.35
1008.23 1008.55 1008.87 1009.11 1009.43 1009.71 1010.03 1010.27 1010.51 1010.79 1011.03 1011.23 1011.43 1011.67 1011.87 1012.07 1012.27 1012.51 1012.75 1012.95 1013.19 1013.43 1013.67 1013.95 1014.23 1014.43 1014.67 1014.91 1015.19 1015.43 1015.67 1015.95 1016.23 1016.51 1016.79 1017.03 1017.23 1017.47 1017.79 1018.07 1018.39 1018.63 1018.83 1019.11 1019.39 1019.67 1019.95 1020.19 1020.51 1020.79 1021.07 1021.35 1021.59 1021.87 1022.11 1022.39 1022.63 1022.87 1023.11 1023.31 1023.47 1023.63 1023.79 1023.91 1023.99 1024.07 1024.19 1024.31 1024.51
1008.19 1008.51 1008.83 1009.15 1009.47 1009.79 1010.07 1010.35 1010.59 1010.83 1011.11 1011.31 1011.51 1011.75 1011.99 1012.19 1012.39 1012.59 1012.87 1013.11 1013.35 1013.55 1013.79 1014.03 1014.31 1014.59 1014.83 1015.11 1015.39 1015.67 1015.95 1016.19 1016.47 1016.75 1016.99 1017.23 1017.47 1017.71 1018.03 1018.31 1018.59 1018.87 1019.11 1019.39 1019.67 1019.95 1020.19 1020.43 1020.75 1021.03 1021.27 1021.51 1021.79 1022.07 1022.39 1022.63 1022.91 1023.15 1023.39 1023.59 1023.75 1023.87 1023.99 1024.07 1024.23 1024.31 1024.39 1024.51 1024.67
1008.11 1008.47 1008.79 1009.15 1009.51 1009.83 1010.15 1010.39 1010.63 1010.87 1011.11 1011.39 1011.63 1011.83 1012.07 1012.31 1012.51 1012.79 1012.99 1013.23 1013.51 1013.75 1013.95 1014.23 1014.47 1014.71 1014.99 1015.27 1015.55 1015.91 1016.23 1016.47 1016.71 1016.95 1017.23 1017.51 1017.79 1018.07 1018.31 1018.55 1018.83 1019.11 1019.39 1019.67 1019.91 1020.15 1020.39 1020.67 1020.99 1021.27 1021.51 1021.79 1022.03 1022.31 1022.55 1022.83 1023.11 1023.39 1023.63 1023.79 1023.95 1024.07 1024.19 1024.27 1024.39 1024.51 1024.59 1024.67 1024.83
1008.19 1008.51 1008.83 1009.23 1009.51 1009.83 1010.19 1010.47 1010.75 1010.99 1011.23 1011.51 1011.75 1011.99 1012.23 1012.47 1012.71 1012.95 1013.19 1013.43 1013.67 1013.95 1014.19 1014.43 1014.67 1014.91 1015.15 1015.43 1015.75 1016.07 1016.47 1016.79 1017.03 1017.23 1017.51 1017.79 1018.07 1018.39 1018.63 1018.83 1019.07 1019.35 1019.63 1019.91 1020.15 1020.39 1020.67 1020.95 1021.23 1021.51 1021.79 1022.03 1022.31 1022.55 1022.79 1023.07 1023.31 1023.55 1023.79 1023.95 1024.07 1024.23 1024.35 1024.47 1024.51 1024.67 1024.79 1024.91 1025.07
1008.27 1008.63 1008.99 1009.35 1009.63 1009.95 1010.23 1010.55 1010.83 1011.11 1011.35 1011.63 1011.91 1012.19 1012.39 1012.63 1012.91 1013.15 1013.39 1013.67 1013.91 1014.15 1014.43 1014.67 1014.95 1015.19 1015.39 1015.63 1015.95 1016.23 1016.63 1016.99 1017.35 1017.63 1017.87 1018.11 1018.43 1018.71 1018.95 1019.19 1019.35 1019.63 1019.91 1020.19 1020.43 1020.67 1020.95 1021.27 1021.55 1021.79 1022.03 1022.27 1022.55 1022.79 1023.07 1023.27 1023.51 1023.71 1023.95 1024.07 1024.23 1024.39 1024.51 1024.67 1024.75 1024.83 1024.95 1025.11 1025.23
1008.27 1008.67 1009.03 1009.39 1009.75 1010.07 1010.35 1010.67 1010.95 1011.19 1011.43 1011.71 1011.99 1012.27 1012.55 1012.79 1013.11 1013.35 1013.63 1013.87 1014.11 1014.39 1014.67 1014.95 1015.23 1015.51 1015.71 1015.95 1016.19 1016.47 1016.79 1017.15 1017.55 1017.95 1018.23 1018.47 1018.75 1019.03 1019.27 1019.51 1019.71 1019.95 1020.23 1020.55 1020.75 1020.91 1021.11 1021.39 1021.75 1022.03 1022.27 1022.51 1022.79 1023.07 1023.31 1023.51 1023.71 1023.87 1024.03 1024.19 1024.39 1024.55 1024.71 1024.87 1024.99 1025.11 1025.23 1025.39 1025.47
1008.39 1008.75 1009.11 1009.51 1009.83 1010.11 1010.39 1010.71 1011.07 1011.35 1011.55 1011.79 1012.07 1012.39 1012.67 1012.99 1013.27 1013.51 1013.83 1014.11 1014.43 1014.71 1014.99 1015.27 1015.55 1015.79 1016.07 1016.31 1016.59 1016.83 1017.07 1017.35 1017.71 1018.07 1018.47 1018.79 1019.07 1019.27 1019.51 1019.79 1020.07 1020.31 1020.59 1020.83 1020.95 1021.07 1021.23 1021.39 1021.71 1022.07 1022.39 1022.67 1022.99 1023.31 1023.55 1023.75 1023.91 1023.99 1024.11 1024.27 1024.43 1024.67 1024.87 1025.11 1025.23 1025.39 1025.51 1025.67 1025.71
1008.47 1008.79 1009.19 1009.55 1009.95 1010.23 1010.51 1010.83 1011.15 1011.43 1011.67 1011.87 1012.19 1012.51 1012.83 1013.15 1013.47 1013.79 1014.07 1014.39 1014.71 1015.03 1015.27 1015.55 1015.79 1016.07 1016.39 1016.63 1016.91 1017.15 1017.39 1017.67 1017.95 1018.23 1018.55 1018.91 1019.23 1019.51 1019.79 1020.07 1020.35 1020.63 1020.83 1020.95 1021.11 1021.23 1021.39 1021.59 1021.79 1022.07 1022.39 1022.79 1023.11 1023.39 1023.67 1023.95 1024.07 1024.19 1024.27 1024.47 1024.63 1024.79 1025.03 1025.31 1025.51 1025.71 1025.79 1025.91 1025.95
1008.55 1008.91 1009.23 1009.63 1009.95 1010.39 1010.67 1010.95 1011.27 1011.55 1011.79 1011.99 1012.31 1012.67 1013.03 1013.39 1013.67 1014.03 1014.35 1014.67 1014.99 1015.27 1015.55 1015.83 1016.11 1016.39 1016.67 1016.91 1017.11 1017.39 1017.67 1017.95 1018.23 1018.47 1018.71 1018.95 1019.31 1019.63 1019.95 1020.23 1020.51 1020.79 1020.95 1021.07 1021.23 1021.39 1021.51 1021.79 1022.03 1022.27 1022.59 1022.95 1023.27 1023.55 1023.79 1024.07 1024.23 1024.39 1024.51 1024.71 1024.87 1025.03 1025.23 1025.51 1025.79 1025.95 1026.03 1026.15 1026.19
1008.63 1008.95 1009.27 1009.63 1010.07 1010.47 1010.83 1011.11 1011.43 1011.71 1011.91 1012.07 1012.39 1012.79 1013.23 1013.59 1013.95 1014.27 1014.59 1014.91 1015.19 1015.51 1015.79 1016.07 1016.39 1016.67 1016.91 1017.19 1017.43 1017.67 1017.87 1018.15 1018.43 1018.67 1018.91 1019.11 1019.43 1019.75 1020.07 1020.31 1020.63 1020.87 1021.07 1021.19 1021.35 1021.51 1021.75 1021.99 1022.27 1022.55 1022.79 1023.11 1023.43 1023.67 1023.91 1024.15 1024.39 1024.59 1024.79 1024.95 1025.15 1025.35 1025.51 1025.75 1025.95 1026.11 1026.23 1026.35 1026.39
1008.67 1009.03 1009.35 1009.67 1010.07 1010.51 1010.95 1011.27 1011.63 1011.91 1012.07 1012.31 1012.63 1013.03 1013.43 1013.79 1014.15 1014.51 1014.79 1015.11 1015.39 1015.67 1015.99 1016.31 1016.59 1016.83 1017.15 1017.47 1017.71 1017.95 1018.11 1018.39 1018.63 1018.83 1019.07 1019.35 1019.63 1019.91 1020.19 1020.47 1020.75 1021.03 1021.23 1021.35 1021.51 1021.71 1021.95 1022.27 1022.51 1022.79 1023.03 1023.23 1023.51 1023.79 1024.03 1024.27 1024.51 1024.79 1025.03 1025.23 1025.43 1025.63 1025.79 1025.99 1026.19 1026.35 1026.47 1026.55 1026.63
1008.79 1009.11 1009.47 1009.79 1010.11 1010.55 1010.99 1011.43 1011.79 1012.07 1012.27 1012.51 1012.83 1013.23 1013.67 1014.03 1014.35 1014.67 1014.95 1015.27 1015.59 1015.87 1016.11 1016.39 1016.71 1017.07 1017.39 1017.67 1017.87 1018.11 1018.39 1018.63 1018.83 1018.99 1019.19 1019.43 1019.75 1020.07 1020.39 1020.63 1020.91 1021.19 1021.39 1021.51 1021.67 1021.95 1022.23 1022.51 1022.75 1022.99 1023.23 1023.39 1023.67 1023.95 1024.23 1024.51 1024.75 1024.99 1025.23 1025.51 1025.67 1025.87 1026.07 1026.23 1026.39 1026.51 1026.63 1026.71 1026.79
1008.87 1009.23 1009.59 1009.91 1010.27 1010.67 1011.15 1011.59 1011.95 1012.23 1012.47 1012.71 1013.11 1013.47 1013.83 1014.23 1014.59 1014.91 1015.19 1015.47 1015.79 1016.07 1016.35 1016.55 1016.87 1017.23 1017.51 1017.79 1018.03 1018.23 1018.51 1018.79 1018.99 1019.19 1019.35 1019.55 1019.87 1020.23 1020.55 1020.83 1021.11 1021.39 1021.63 1021.75 1021.95 1022.23 1022.47 1022.75 1022.95 1023.15 1023.39 1023.63 1023.87 1024.19 1024.47 1024.75 1024.99 1025.23 1025.47 1025.71 1025.91 1026.07 1026.27 1026.39 1026.55 1026.71 1026.79 1026.87 1026.95
1009.07 1009.39 1009.75 1010.07 1010.51 1010.95 1011.39 1011.79 1012.15 1012.43 1012.67 1012.95 1013.35 1013.67 1014.07 1014.43 1014.79 1015.11 1015.39 1015.67 1015.95 1016.23 1016.51 1016.79 1017.11 1017.39 1017.71 1017.99 1018.23 1018.51 1018.67 1018.87 1019.15 1019.39 1019.55 1019.71 1019.99 1020.39 1020.75 1021.03 1021.35 1021.59 1021.79 1021.95 1022.23 1022.47 1022.71 1022.95 1023.15 1023.39 1023.59 1023.87 1024.19 1024.51 1024.79 1024.95 1025.23 1025.51 1025.71 1025.95 1026.15 1026.35 1026.51 1026.59 1026.79 1026.91 1026.99 1027.07 1027.11
1009.23 1009.59 1009.91 1010.31 1010.71 1011.15 1011.59 1011.99 1012.35 1012.67 1012.95 1013.23 1013.55 1013.91 1014.27 1014.67 1015.03 1015.39 1015.67 1015.95 1016.15 1016.39 1016.67 1016.95 1017.27 1017.59 1017.87 1018.15 1018.39 1018.67 1018.95 1019.11 1019.35 1019.55 1019.71 1019.91 1020.15 1020.47 1020.83 1021.23 1021.55 1021.79 1022.03 1022.23 1022.43 1022.67 1022.95 1023.15 1023.39 1023.59 1023.83 1024.11 1024.43 1024.75 1024.99 1025.23 1025.47 1025.75 1026.03 1026.23 1026.43 1026.59 1026.75 1026.87 1026.95 1027.11 1027.19 1027.27 1027.31
1009.39 1009.75 1010.11 1010.51 1010.91 1011.35 1011.79 1012.19 1012.55 1012.91 1013.23 1013.51 1013.83 1014.15 1014.47 1014.79 1015.19 1015.55 1015.91 1016.19 1016.39 1016.63 1016.91 1017.19 1017.51 1017.79 1018.07 1018.31 1018.51 1018.79 1019.07 1019.35 1019.59 1019.79 1019.95 1020.11 1020.27 1020.55 1020.91 1021.31 1021.75 1022.03 1022.23 1022.47 1022.67 1022.91 1023.11 1023.35 1023.55 1023.79 1024.07 1024.35 1024.67 1024.95 1025.19 1025.39 1025.67 1025.95 1026.23 1026.51 1026.67 1026.83 1026.95 1027.11 1027.19 1027.27 1027.35 1027.39 1027.47
1009.47 1009.87 1010.27 1010.67 1011.03 1011.47 1011.91 1012.39 1012.79 1013.15 1013.47 1013.79 1014.11 1014.43 1014.71 1015.03 1015.39 1015.71 1016.03 1016.27 1016.55 1016.87 1017.23 1017.51 1017.79 1018.07 1018.39 1018.59 1018.79 1019.03 1019.23 1019.51 1019.79 1020.03 1020.15 1020.27 1020.43 1020.67 1021.03 1021.51 1021.91 1022.23 1022.47 1022.67 1022.91 1023.11 1023.31 1023.51 1023.79 1023.99 1024.27 1024.59 1024.95 1025.23 1025.47 1025.67 1025.95 1026.23 1026.47 1026.67 1026.87 1027.03 1027.11 1027.23 1027.27 1027.39 1027.47 1027.51 1027.51
1009.51 1009.87 1010.31 1010.75 1011.11 1011.51 1011.95 1012.47 1012.95 1013.35 1013.67 1013.95 1014.31 1014.67 1014.99 1015.35 1015.67 1015.95 1016.19 1016.39 1016.67 1017.03 1017.39 1017.75 1018.07 1018.35 1018.67 1018.95 1019.23 1019.39 1019.51 1019.71 1019.95 1020.19 1020.39 1020.51 1020.59 1020.83 1021.23 1021.71 1022.15 1022.51 1022.71 1022.91 1023.11 1023.31 1023.51 1023.71 1023.95 1024.19 1024.47 1024.79 1025.11 1025.39 1025.67 1025.87 1026.19 1026.39 1026.63 1026.79 1026.95 1027.11 1027.19 1027.23 1027.31 1027.39 1027.43 1027.47 1027.47
1009.55 1009.91 1010.27 1010.71 1011.11 1011.51 1011.95 1012.51 1013.03 1013.51 1013.87 1014.15 1014.47 1014.79 1015.23 1015.59 1015.95 1016.19 1016.35 1016.47 1016.79 1017.15 1017.51 1017.87 1018.23 1018.59 1018.87 1019.19 1019.47 1019.71 1019.87 1019.95 1020.07 1020.31 1020.55 1020.71 1020.83 1021.07 1021.43 1021.95 1022.39 1022.71 1022.95 1023.11 1023.31 1023.47 1023.67 1023.91 1024.11 1024.39 1024.63 1024.95 1025.27 1025.59 1025.83 1026.07 1026.35 1026.55 1026.75 1026.91 1027.11 1027.23 1027.23 1027.27 1027.31 1027.35 1027.39 1027.39 1027.39
1009.67 1009.99 1010.35 1010.75 1011.11 1011.43 1011.87 1012.43 1013.03 1013.51 1013.95 1014.31 1014.67 1015.03 1015.39 1015.71 1016.11 1016.39 1016.51 1016.59 1016.87 1017.23 1017.67 1018.07 1018.43 1018.83 1019.15 1019.39 1019.67 1019.95 1020.19 1020.31 1020.39 1020.51 1020.79 1020.99 1021.19 1021.39 1021.67 1022.07 1022.55 1022.91 1023.15 1023.31 1023.51 1023.67 1023.87 1024.07 1024.31 1024.51 1024.79 1025.11 1025.43 1025.71 1025.95 1026.23 1026.51 1026.71 1026.91 1027.07 1027.23 1027.35 1027.39 1027.39 1027.39 1027.39 1027.39 1027.35 1027.35
1009.83 1010.15 1010.47 1010.87 1011.19 1011.47 1011.87 1012.47 1013.03 1013.51 1013.99 1014.43 1014.83 1015.23 1015.59 1015.91 1016.23 1016.51 1016.71 1016.87 1017.07 1017.35 1017.71 1018.19 1018.67 1019.07 1019.39 1019.59 1019.87 1020.19 1020.47 1020.67 1020.75 1020.83 1021.07 1021.35 1021.51 1021.67 1021.87 1022.23 1022.67 1023.07 1023.31 1023.51 1023.67 1023.87 1024.07 1024.27 1024.51 1024.71 1024.95 1025.27 1025.55 1025.83 1026.07 1026.35 1026.63 1026.83 1026.99 1027.15 1027.31 1027.39 1027.47 1027.47 1027.43 1027.39 1027.39 1027.31 1027.23
1009.99 1010.35 1010.71 1011.11 1011.35 1011.63 1012.03 1012.59 1013.15 1013.63 1014.03 1014.47 1014.95 1015.39 1015.79 1016.07 1016.39 1016.67 1016.95 1017.19 1017.39 1017.59 1017.91 1018.31 1018.79 1019.23 1019.55 1019.79 1020.07 1020.39 1020.67 1020.95 1021.11 1021.23 1021.43 1021.67 1021.91 1022.07 1022.19 1022.43 1022.79 1023.19 1023.47 1023.67 1023.83 1024.03 1024.23 1024.43 1024.67 1024.95 1025.23 1025.51 1025.75 1025.95 1026.15 1026.39 1026.63 1026.91 1027.11 1027.23 1027.27 1027.39 1027.43 1027.47 1027.43 1027.43 1027.39 1027.39 1027.27
1010.19 1010.55 1010.95 1011.27 1011.51 1011.79 1012.23 1012.79 1013.35 1013.79 1014.19 1014.59 1015.07 1015.51 1015.87 1016.19 1016.47 1016.79 1017.11 1017.39 1017.67 1017.91 1018.23 1018.59 1019.03 1019.43 1019.79 1020.07 1020.31 1020.59 1020.87 1021.19 1021.43 1021.67 1021.79 1021.99 1022.23 1022.39 1022.51 1022.71 1022.99 1023.31 1023.59 1023.79 1023.95 1024.15 1024.39 1024.63 1024.87 1025.15 1025.43 1025.71 1025.95 1026.07 1026.23 1026.39 1026.67 1026.91 1027.11 1027.23 1027.27 1027.31 1027.39 1027.43 1027.43 1027.43 1027.47 1027.47 1027.43
Thickness
5659 5659 5658 5658 5657 5657 5656 5656 5655 5655 5655 5654 5653 5653 5653 5653 5653 5653 5653 5653 5653 5652 5652 5651 5650 5649 5648 5648 5647 5646 5645 5644 5643 5642 5641 5641 5640 5639 5639 5638 5638 5638 5637 5636 5635 5634 5633 5632 5630 5628 5626 5624 5621 5619 5617 5616 5614 5612 5609 5607 5604 5602 5600 5598 5595 5592 5589 5587 5585
5659 5658 5658 5657 5656 5656 5655 5655 5654 5653 5653 5652 5652 5652 5652 5652 5652 5652 5652 5652 5651 5652 5651 5650 5649 5648 5647 5646 5646 5645 5644 5643 5642 5641 5640 5639 5638 5638 5637 5637 5636 5637 5635 5635 5633 5632 5631 5630 5628 5625 5623 5621 5619 5617 5614 5613 5612 5609 5606 5603 5601 5599 5597 5594 5591 5588 5586 5583 5581
5659 5658 5658 5657 5656 5655 5654 5653 5652 5651 5651 5651 5650 5650 5651 5651 5651 5650 5650 5650 5650 5650 5649 5648 5648 5647 5646 5645 5644 5644 5643 5642 5641 5640 5639 5638 5637 5636 5635 5635 5635 5635 5634 5633 5632 5631 5629 5627 5625 5623 5621 5618 5616 5613 5611 5610 5608 5606 5603 5600 5598 5596 5593 5590 5587 5585 5582 5580 5577
5658 5657 5657 5656 5655 5654 5654 5652 5651 5650 5650 5649 5649 5649 5649 5649 5649 5649 5649 5648 5649 5648 5647 5647 5647 5645 5645 5643 5643 5642 5642 5641 5640 5639 5638 5637 5636 5635 5634 5633 5633 5632 5632 5631 5630 5628 5627 5625 5622 5620 5617 5615 5613 5610 5608 5606 5605 5602 5600 5597 5595 5592 5590 5586 5584 5581 5579 5576 5573
5658 5657 5656 5655 5655 5653 5653 5652 5651 5649 5649 5648 5647 5648 5647 5648 5648 5647 5647 5647 5647 5647 5646 5646 5645 5644 5643 5642 5642 5641 5640 5640 5639 5638 5636 5636 5634 5634 5632 5632 5631 5630 5630 5628 5627 5625 5623 5622 5619 5616 5614 5612 5610 5607 5605 5603 5601 5599 5596 5593 5591 5589 5586 5583 5580 5578 5575 5572 5569
5657 5656 5656 5654 5653 5653 5652 5651 5650 5649 5648 5647 5647 5646 5646 5647 5646 5646 5646 5645 5645 5645 5645 5644 5643 5642 5642 5641 5640 5640 5639 5638 5638 5636 5635 5634 5632 5631 5631 5630 5629 5628 5627 5626 5624 5622 5621 5618 5615 5613 5610 5608 5606 5603 5602 5600 5598 5595 5592 5590 5587 5584 5582 5579 5577 5574 5571 5568 5566
5656 5655 5654 5653 5653 5652 5651 5650 5649 5647 5647 5646 5646 5645 5645 5645 5645 5645 5644 5644 5643 5643 5643 5642 5641 5640 5640 5639 5638 5638 5637 5636 5635 5634 5633 5632 5631 5629 5628 5627 5627 5627 5625 5624 5621 5619 5617 5615 5612 5610 5607 5605 5602 5600 5598 5597 5595 5593 5589 5586 5583 5581 5579 5576 5572 5570 5567 5564 5562
5655 5654 5653 5652 5652 5651 5650 5649 5647 5646 5646 5645 5644 5644 5644 5644 5644 5643 5643 5642 5642 5641 5641 5640 5639 5639 5638 5638 5637 5636 5635 5634 5633 5632 5631 5630 5629 5628 5627 5626 5625 5624 5622 5620 5618 5616 5613 5611 5609 5606 5603 5601 5599 5596 5595 5593 5591 5589 5586 5582 5580 5577 5574 5571 5569 5566 5563 5561 5558
5653 5653 5652 5652 5651 5650 5649 5647 5646 5645 5644 5644 5644 5643 5643 5643 5642 5642 5641 5641 5640 5640 5639 5639 5638 5637 5637 5636 5635 5634 5633 5632 5631 5630 5629 5628 5627 5626 5624 5624 5622 5620 5619 5617 5615 5613 5610 5607 5604 5602 5600 5597 5595 5592 5591 5590 5588 5585 5583 5579 5575 5572 5569 5567 5565 5562 5559 5557 5554
5652 5652 5651 5650 5650 5648 5647 5646 5645 5644 5643 5642 5642 5642 5642 5641 5641 5641 5640 5640 5639 5638 5637 5637 5636 5635 5635 5634 5633 5632 5631 5630 5629 5628 5627 5626 5625 5624 5623 5622 5620 5618 5616 5613 5611 5610 5607 5604 5601 5598 5596 5594 5591 5589 5587 5586 5584 5582 5578 5574 5571 5568 5565 5562 5560 5557 5555 5552 5549
5652 5651 5650 5649 5648 5647 5646 5645 5643 5642 5641 5640 5640 5640 5640 5640 5639 5639 5638 5638 5637 5636 5635 5634 5634 5633 5633 5632 5631 5630 5629 5628 5627 5626 5625 5625 5623 5622 5621 5619 5617 5615 5613 5611 5608 5606 5603 5600 5597 5594 5592 5590 5588 5586 5584 5582 5580 5577 5574 5570 5567 5564 5562 5558 5555 5553 5550 5547 5544
5650 5649 5649 5648 5647 5646 5644 5643 5642 5640 5639 5639 5639 5638 5638 5637 5637 5637 5636 5635 5634 5634 5633 5633 5633 5632 5631 5630 5629 5628 5627 5626 5625 5624 5623 5622 5620 5619 5617 5615 5613 5612 5609 5607 5605 5603 5600 5597 5594 5592 5589 5586 5585 5583 5580 5578 5576 5573 5569 5566 5563 5561 5557 5554 5551 5549 5546 5543 5540
5649 5648 5647 5646 5645 5644 5643 5641 5640 5639 5638 5637 5637 5636 5636 5636 5635 5634 5633 5632 5632 5631 5630 5630 5630 5630 5629 5627 5626 5625 5625 5623 5623 5622 5620 5619 5617 5616 5614 5612 5610 5607 5605 5603 5601 5599 5597 5594 5591 5589 5586 5583 5582 5579 5576 5574 5572 5569 5566 5562 5559 5556 5553 5550 5547 5545 5542 5539 5537
5647 5646 5646 5644 5643 5642 5641 5640 5638 5637 5636 5636 5635 5635 5634 5633 5633 5632 5632 5631 5630 5629 5628 5628 5627 5627 5626 5625 5624 5623 5622 5621 5620 5619 5618 5616 5615 5613 5611 5608 5607 5604 5601 5599 5598 5596 5594 5592 5588 5586 5583 5580 5577 5575 5572 5570 5568 5565 5561 5558 5555 5552 5549 5546 5543 5541 5538 5535 5533
5646 5645 5644 5643 5642 5641 5639 5638 5637 5635 5634 5633 5633 5633 5631 5631 5631 5630 5630 5629 5628 5627 5626 5625 5625 5623 5623 5622 5622 5621 5620 5619 5618 5616 5615 5613 5611 5609 5607 5604 5602 5600 5598 5596 5594 5592 5590 5588 5585 5583 5580 5577 5573 5571 5568 5566 5563 5560 5557 5554 5551 5548 5545 5542 5539 5537 5534 5532 5530
5644 5643 5642 5641 5640 5639 5638 5636 5635 5634 5633 5632 5631 5631 5630 5630 5629 5628 5628 5627 5626 5625 5625 5623 5621 5620 5620 5619 5619 5618 5617 5616 5615 5613 5611 5610 5607 5605 5603 5601 5599 5596 5594 5592 5589 5587 5585 5583 5581 5579 5576 5573 5570 5567 5564 5561 5558 5555 5552 5550 5547 5544 5541 5538 5535 5533 5531 5529 5527
5642 5641 5641 5640 5639 5638 5637 5635 5634 5633 5632 5631 5630 5630 5629 5628 5628 5626 5626 5625 5624 5623 5622 5620 5619 5619 5617 5617 5616 5615 5613 5612 5611 5609 5608 5606 5604 5602 5600 5597 5595 5593 5591 5589 5586 5584 5581 5579 5577 5574 5572 5569 5566 5563 5560 5557 5554 5551 5548 5546 5543 5540 5537 5534 5532 5530 5528 5526 5523
5640 5639 5639 5638 5637 5636 5635 5634 5633 5632 5631 5630 5629 5628 5627 5626 5626 5625 5624 5624 5623 5622 5620 5619 5618 5616 5615 5614 5613 5611 5610 5609 5607 5605 5603 5602 5600 5598 5596 5593 5591 5589 5588 5585 5583 5581 5578 5575 5573 5570 5567 5564 5562 5558 5556 5553 5550 5548 5544 5541 5538 5536 5533 5531 5529 5527 5525 5522 5520
5639 5637 5636 5636 5635 5634 5633 5632 5632 5630 5629 5628 5628 5627 5626 5625 5624 5623 5622 5621 5621 5620 5618 5616 5615 5613 5612 5611 5609 5608 5607 5605 5603 5601 5599 5598 5596 5594 5592 5590 5587 5586 5584 5581 5579 5577 5574 5571 5569 5566 5563 5560 5557 5554 5551 5549 5546 5542 5539 5536 5534 5531 5529 5527 5525 5524 5522 5520 5517
5639 5637 5635 5633 5632 5632 5631 5630 5629 5628 5627 5627 5625 5624 5623 5622 5622 5621 5619 5618 5617 5617 5615 5614 5612 5610 5609 5608 5606 5604 5602 5601 5599 5597 5596 5594 5592 5590 5588 5586 5584 5581 5579 5577 5575 5573 5570 5567 5565 5562 5559 5557 5554 5550 5548 5544 5541 5538 5535 5532 5530 5528 5526 5524 5522 5521 5518 5517 5514
5638 5636 5635 5634 5632 5630 5629 5628 5627 5626 5625 5624 5623 5621 5621 5620 5619 5618 5617 5615 5614 5613 5612 5610 5609 5607 5606 5604 5602 5600 5598 5597 5595 5593 5592 5590 5588 5586 5584 5582 5580 5578 5576 5574 5571 5569 5566 5564 5561 5558 5555 5552 5550 5547 5544 5540 5537 5534 5532 5528 5526 5525 5522 5521 5519 5517 5515 5513 5511
5635 5634 5633 5632 5631 5630 5628 5626 5625 5625 5623 5621 5620 5618 5617 5616 5615 5614 5613 5612 5612 5610 5608 5607 5605 5604 5603 5601 5599 5597 5594 5592 5591 5590 5587 5585 5583 5581 5579 5578 5576 5574 5572 5569 5567 5565 5562 5560 5557 5554 5551 5549 5546 5543 5540 5537 5533 5531 5527 5525 5523 5521 5520 5518 5516 5514 5512 5510 5508
5634 5633 5631 5629 5628 5627 5626 5624 5623 5623 5621 5620 5617 5615 5614 5613 5612 5611 5610 5609 5608 5606 5604 5602 5601 5600 5599 5597 5595 5593 5591 5589 5587 5584 5582 5580 5579 5577 5575 5574 5572 5570 5568 5566 5563 5561 5559 5556 5552 5550 5548 5545 5542 5539 5536 5533 5531 5528 5525 5523 5520 5518 5516 5515 5513 5511 5510 5507 5505
5632 5631 5630 5628 5626 5624 5622 5621 5620 5620 5618 5617 5615 5613 5611 5610 5608 5607 5606 5605 5604 5602 5600 5598 5597 5595 5594 5593 5592 5590 5588 5585 5583 5580 5578 5576 5574 5572 5571 5569 5567 5565 5563 5561 5559 5557 5555 5553 5550 5546 5544 5541 5538 5535 5532 5529 5527 5525 5523 5520 5518 5515 5513 5511 5510 5508 5506 5504 5502
5631 5630 5629 5627 5625 5623 5621 5619 5618 5617 5616 5616 5613 5611 5609 5607 5606 5604 5603 5601 5600 5598 5596 5594 5593 5591 5590 5589 5587 5586 5585 5583 5580 5577 5574 5572 5570 5569 5567 5565 5563 5561 5559 5557 5555 5554 5553 5551 5547 5544 5541 5537 5534 5531 5528 5525 5524 5522 5520 5518 5516 5513 5511 5508 5506 5505 5502 5500 5498
5629 5628 5627 5625 5623 5621 5619 5618 5616 5615 5615 5614 5611 5608 5606 5604 5602 5600 5599 5597 5595 5593 5592 5591 5589 5588 5586 5585 5583 5582 5580 5578 5577 5575 5572 5570 5568 5566 5564 5562 5559 5558 5555 5554 5552 5551 5549 5547 5545 5542 5539 5535 5531 5528 5525 5522 5520 5519 5517 5515 5513 5511 5509 5505 5503 5501 5498 5497 5496
5626 5625 5624 5623 5621 5618 5616 5615 5614 5613 5612 5611 5609 5606 5603 5600 5598 5596 5595 5593 5591 5590 5588 5586 5585 5584 5583 5581 5580 5578 5577 5574 5573 5571 5570 5568 5565 5563 5561 5559 5556 5554 5552 5551 5550 5548 5546 5544 5541 5539 5535 5532 5528 5525 5523 5520 5517 5516 5514 5512 5510 5508 5505 5502 5500 5497 5496 5494 5493
5624 5622 5621 5620 5618 5615 5614 5612 5611 5611 5610 5609 5607 5603 5600 5597 5595 5593 5591 5590 5588 5586 5585 5583 5582 5580 5578 5577 5576 5575 5573 5571 5570 5568 5566 5565 5563 5561 5558 5556 5554 5552 5550 5548 5547 5545 5542 5540 5537 5535 5531 5528 5525 5522 5520 5518 5515 5513 5511 5508 5506 5504 5502 5499 5497 5495 5493 5491 5490
5621 5620 5618 5617 5615 5613 5611 5609 5608 5608 5607 5606 5603 5600 5596 5594 5592 5590 5589 5587 5586 5584 5582 5580 5578 5577 5575 5573 5572 5571 5570 5568 5567 5565 5563 5562 5560 5558 5556 5553 5551 5548 5547 5545 5544 5541 5538 5536 5533 5531 5528 5526 5523 5520 5518 5516 5513 5510 5508 5505 5503 5501 5498 5496 5494 5491 5490 5488 5486
5618 5617 5615 5614 5613 5611 5608 5607 5605 5605 5604 5602 5600 5596 5594 5591 5589 5588 5586 5585 5582 5581 5579 5577 5576 5574 5572 5570 5569 5568 5567 5565 5564 5563 5561 5560 5557 5555 5552 5550 5547 5545 5543 5542 5540 5537 5535 5532 5530 5527 5525 5523 5521 5517 5515 5512 5510 5507 5504 5502 5500 5498 5495 5493 5491 5489 5487 5485 5483
5616 5614 5612 5611 5610 5608 5605 5603 5602 5601 5601 5598 5596 5594 5591 5588 5586 5584 5583 5581 5579 5577 5576 5574 5573 5571 5569 5567 5567 5565 5563 5562 5562 5560 5559 5557 5554 5552 5549 5546 5544 5542 5540 5538 5536 5534 5531 5528 5526 5524 5522 5520 5517 5514 5511 5509 5507 5504 5501 5499 5496 5494 5492 5490 5488 5486 5484 5482 5481
5613 5612 5610 5608 5606 5604 5602 5600 5599 5597 5597 5595 5593 5590 5588 5585 5583 5581 5579 5577 5576 5575 5573 5571 5570 5568 5566 5564 5563 5561 5561 5559 5558 5556 5555 5553 5552 5548 5546 5543 5541 5538 5536 5534 5532 5530 5528 5526 5523 5521 5519 5517 5514 5511 5508 5506 5503 5501 5498 5495 5493 5491 5489 5487 5485 5483 5481 5479 5477
5610 5608 5607 5605 5603 5602 5600 5597 5596 5594 5593 5591 5589 5587 5585 5582 5580 5577 5575 5574 5573 5572 5570 5568 5566 5564 5563 5562 5560 5559 5557 5556 5554 5553 5551 5550 5548 5546 5543 5540 5537 5535 5533 5531 5529 5527 5525 5522 5520 5518 5516 5513 5510 5508 5505 5503 5500 5498 5494 5492 5490 5488 5486 5484 5482 5480 5478 5477 5475
5607 5606 5604 5602 5601 5598 5596 5594 5592 5590 5588 5587 5586 5584 5582 5579 5577 5574 5572 5571 5570 5567 5566 5564 5563 5562 5560 5559 5558 5556 5554 5552 5551 5550 5548 5547 5546 5544 5541 5537 5534 5532 5530 5527 5525 5523 5521 5519 5517 5515 5513 5510 5507 5504 5502 5500 5497 5494 5492 5489 5487 5485 5483 5481 5479 5478 5476 5474 5472
5605 5603 5601 5600 5598 5596 5593 5591 5588 5587 5584 5583 5582 5580 5578 5576 5574 5571 5569 5568 5566 5564 5562 5560 5559 5558 5557 5555 5554 5553 5551 5549 5548 5546 5545 5544 5543 5541 5538 5534 5531 5528 5526 5524 5522 5520 5518 5516 5514 5512 5509 5507 5504 5501 5499 5497 5494 5492 5489 5486 5484 5482 5480 5479 5477 5476 5474 5472 5471
5604 5602 5600 5598 5596 5595 5591 5588 5585 5583 5581 5580 5578 5576 5574 5572 5570 5568 5568 5565 5563 5561 5559 5557 5556 5554 5553 5551 5550 5549 5548 5546 5544 5543 5542 5541 5540 5538 5535 5531 5527 5524 5522 5521 5519 5518 5515 5513 5511 5509 5507 5504 5501 5498 5496 5494 5491 5488 5486 5484 5482 5480 5479 5477 5476 5475 5473 5471 5469
5601 5600 5599 5597 5595 5593 5590 5587 5583 5580 5578 5576 5575 5573 5571 5568 5566 5566 5565 5562 5560 5559 5557 5555 5553 5551 5549 5548 5546 5545 5544 5543 5542 5540 5538 5537 5536 5535 5532 5527 5524 5521 5519 5518 5516 5514 5513 5511 5509 5507 5504 5501 5498 5496 5493 5491 5488 5486 5484 5482 5480 5478 5476 5476 5474 5473 5471 5470 5468
5599 5598 5596 5594 5592 5591 5589 5585 5581 5578 5576 5574 5572 5570 5568 5566 5564 5562 5560 5560 5559 5556 5554 5552 5550 5548 5546 5545 5543 5542 5540 5539 5538 5537 5535 5533 5532 5531 5528 5524 5521 5517 5515 5514 5513 5511 5510 5507 5506 5504 5501 5499 5496 5493 5491 5488 5486 5483 5482 5479 5477 5475 5474 5473 5472 5471 5470 5468 5466
5595 5594 5592 5591 5589 5587 5586 5582 5579 5576 5574 5572 5569 5566 5564 5563 5561 5559 5557 5556 5556 5555 5553 5550 5547 5545 5543 5542 5540 5538 5536 5534 5534 5533 5532 5529 5527 5527 5525 5522 5518 5515 5513 5511 5510 5508 5507 5505 5503 5501 5499 5496 5493 5491 5489 5486 5484 5482 5479 5478 5476 5474 5473 5472 5471 5469 5468 5467 5465
5592 5590 5588 5586 5586 5585 5582 5579 5576 5573 5571 5569 5566 5564 5562 5560 5558 5556 5554 5553 5552 5552 5551 5548 5544 5542 5539 5538 5536 5534 5532 5529 5529 5527 5526 5525 5523 5522 5520 5519 5516 5513 5511 5509 5508 5506 5504 5502 5500 5498 5496 5493 5491 5489 5487 5485 5482 5480 5478 5476 5475 5473 5472 5470 5469 5468 5466 5464 5463
5588 5586 5585 5583 5583 5582 5580 5576 5572 5570 5568 5566 5564 5562 5560 5558 5555 5553 5552 5550 5549 5548 5547 5544 5542 5539 5537 5535 5533 5530 5528 5526 5524 5522 5522 5520 5519 5518 5516 5515 5513 5511 5508 5506 5505 5503 5501 5500 5498 5496 5493 5491 5489 5487 5486 5483 5481 5479 5477 5475 5474 5472 5470 5468 5467 5466 5464 5462 5460